Change the Weather History Date:

Wednesday, January 29, 2014

  Actual Average Record
Temperature  
Mean Temperature 20 °F -  
Max Temperature 24 °F 35 °F 50 °F (2002)
Min Temperature 16 °F 23 °F 10 °F (1977)
Degree Days  
Heating Degree Days 45    
Moisture  
Dew Point 12 °F    
Average Humidity 74    
Maximum Humidity 89    
Minimum Humidity 42    
Precipitation  
Precipitation 0.15 in - - ()
Sea Level Pressure  
Sea Level Pressure 30.09 in    
Wind  
Wind Speed 3 mph (WNW)    
Max Wind Speed 9 mph    
Max Gust Speed -    
Visibility 5 miles    
Events Fog , Snow    
Averages and records for this station are not official NWS values.
T = Trace of Precipitation, MM = Missing Value Source: NWS Daily Summary

Daily Weather History Graph

Daily Weather History Graph

Search for Another Location

Airport or City:

Trip Planner

Search our weather history database for the weather conditions in past years. The results will help you decide how hot, cold, wet, or windy it might be!

Date:

Astronomy

Jan. 29, 2014 Rise Set
Actual Time 6:54 AM EST 4:51 PM EST
Civil Twilight 6:25 AM EST 5:21 PM EST
Nautical Twilight 5:51 AM EST 5:54 PM EST
Astronomical Twilight 5:19 AM EST 6:27 PM EST
Moon 5:28 AM EST (1/29) 3:47 PM EST (1/29)
Length of Visible Light 10h 56m
Length of Day
9h 56m
Waning Crescent, 2% of the Moon is Illuminated
Jan 29
Waning Crescent
Jan 30
New
Feb 6
First Quarter
Feb 14
Full
Feb 22
Last Quarter

Hourly Weather History & Observations

Time (EST) Temp. Windchill Dew Point Humidity Pressure Visibility Wind Dir Wind Speed Gust Speed Precip Events Conditions
12:52 AM 19.9 °F - -0.0 °F 42% 30.22 in 10.0 mi Calm Calm - N/A   Overcast
1:52 AM 19.9 °F - 1.0 °F 44% 30.20 in 10.0 mi Calm Calm - N/A   Overcast
2:52 AM 19.0 °F - 8.1 °F 62% 30.18 in 6.0 mi Calm Calm - 0.00 in Snow Light Snow
3:28 AM 18.0 °F 12.7 °F 9.0 °F 68% 30.17 in 2.5 mi NNW 3.5 mph - 0.00 in Snow Light Snow
3:45 AM 18.0 °F - 10.0 °F 71% 30.16 in 3.0 mi Calm Calm - 0.00 in Snow Light Snow
3:52 AM 18.0 °F - 10.9 °F 74% 30.17 in 2.5 mi Calm Calm - 0.00 in Snow Light Snow
4:05 AM 18.0 °F 12.7 °F 10.9 °F 74% 30.16 in 1.2 mi Variable 3.5 mph - 0.00 in Snow Light Snow
4:52 AM 17.1 °F - 12.9 °F 84% 30.12 in 1.2 mi Calm Calm - 0.01 in Snow Light Snow
5:52 AM 18.0 °F - 14.0 °F 84% 30.10 in 1.0 mi Calm Calm - 0.01 in Snow Light Snow
6:00 AM 18.0 °F 12.7 °F 14.0 °F 84% 30.10 in 0.8 mi Variable 3.5 mph - 0.01 in Snow Light Snow
6:17 AM 18.0 °F 9.8 °F 14.0 °F 84% 30.09 in 1.0 mi North 5.8 mph - 0.02 in Snow Light Snow
6:27 AM 18.0 °F 12.7 °F 14.0 °F 84% 30.10 in 0.8 mi Variable 3.5 mph - 0.03 in Snow Light Snow
6:38 AM 18.0 °F - 14.0 °F 84% 30.11 in 1.2 mi Calm Calm - 0.03 in Snow Light Snow
6:52 AM 18.0 °F 12.7 °F 14.0 °F 84% 30.09 in 1.2 mi Variable 3.5 mph - 0.03 in Snow Light Snow
6:59 AM 18.0 °F 12.7 °F 14.0 °F 84% 30.10 in 1.5 mi Variable 3.5 mph - 0.00 in Snow Light Snow
7:11 AM 18.0 °F 11.1 °F 14.0 °F 84% 30.08 in 0.8 mi NNW 4.6 mph - 0.01 in Snow Light Snow
7:28 AM 18.0 °F 11.1 °F 14.0 °F 84% 30.08 in 1.0 mi NW 4.6 mph - 0.02 in Snow Light Snow
7:44 AM 18.0 °F - 15.1 °F 88% 30.08 in 0.5 mi Calm Calm - 0.02 in Fog , Snow Snow
7:52 AM 18.0 °F 12.7 °F 15.1 °F 88% 30.08 in 0.8 mi Variable 3.5 mph - 0.03 in Snow Light Snow
8:05 AM 19.0 °F 13.9 °F 15.1 °F 85% 30.07 in 0.5 mi Variable 3.5 mph - 0.00 in Fog , Snow Snow
8:52 AM 19.0 °F - 16.0 °F 88% 30.09 in 0.5 mi Calm Calm - 0.03 in Fog , Snow Snow
9:13 AM 19.9 °F 13.4 °F 16.0 °F 85% 30.07 in 0.8 mi Variable 4.6 mph - 0.01 in Snow Light Snow
9:26 AM 19.9 °F 14.9 °F 16.0 °F 85% 30.07 in 1.0 mi NW 3.5 mph - 0.01 in Snow Light Snow
9:43 AM 19.9 °F 13.4 °F 16.0 °F 85% 30.07 in 0.5 mi Variable 4.6 mph - 0.01 in Fog , Snow Snow
9:52 AM 19.9 °F 12.1 °F 17.1 °F 89% 30.08 in 0.5 mi NW 5.8 mph - 0.02 in Fog , Snow Snow
10:06 AM 21.0 °F 13.4 °F 17.1 °F 85% 30.07 in 0.5 mi NNW 5.8 mph - 0.01 in Fog , Snow Light Snow
10:45 AM 21.0 °F 11.4 °F 17.1 °F 85% 30.05 in 1.0 mi NW 8.1 mph - 0.02 in Snow Light Snow
10:52 AM 21.0 °F 12.4 °F 17.1 °F 85% 30.06 in 1.8 mi Variable 6.9 mph - 0.02 in Snow Light Snow
10:57 AM 21.0 °F 10.6 °F 16.0 °F 81% 30.05 in 2.5 mi NW 9.2 mph - 0.00 in Snow Light Snow
11:20 AM 21.0 °F 10.6 °F 16.0 °F 81% 30.05 in 4.0 mi NW 9.2 mph - 0.00 in Snow Light Snow
11:28 AM 21.0 °F 11.4 °F 16.0 °F 81% 30.04 in 5.0 mi NW 8.1 mph - 0.00 in   Haze
11:52 AM 21.9 °F 13.4 °F 16.0 °F 78% 30.03 in 10.0 mi Variable 6.9 mph - 0.00 in   Mostly Cloudy
12:15 PM 23.0 °F 13.1 °F 16.0 °F 74% 30.02 in 10.0 mi WNW 9.2 mph - N/A   Mostly Cloudy
12:41 PM 23.0 °F 14.7 °F 16.0 °F 74% 30.00 in 10.0 mi Variable 6.9 mph - N/A   Scattered Clouds
12:52 PM 23.0 °F 15.8 °F 15.1 °F 72% 30.01 in 10.0 mi WNW 5.8 mph - N/A   Scattered Clouds
1:05 PM 23.0 °F 14.7 °F 15.1 °F 72% 30.01 in 10.0 mi West 6.9 mph - N/A   Mostly Cloudy
1:50 PM 23.0 °F 15.8 °F 15.8 °F 74% 30.01 in 10.0 mi Variable 5.8 mph - N/A   Scattered Clouds
1:52 PM 24.1 °F 16.0 °F 15.1 °F 69% 30.02 in 10.0 mi West 6.9 mph - N/A   Scattered Clouds
2:52 PM 24.1 °F 18.2 °F 14.0 °F 65% 30.01 in 10.0 mi WSW 4.6 mph - N/A   Partly Cloudy
3:52 PM 23.0 °F 13.1 °F 10.0 °F 58% 30.03 in 10.0 mi WSW 9.2 mph - N/A   Clear
4:52 PM 21.0 °F 11.4 °F 7.0 °F 55% 30.04 in 10.0 mi WSW 8.1 mph - N/A   Clear
5:52 PM 19.9 °F 10.1 °F 8.1 °F 60% 30.06 in 10.0 mi West 8.1 mph - N/A   Clear
6:52 PM 19.9 °F 11.1 °F 8.1 °F 60% 30.11 in 10.0 mi West 6.9 mph - N/A   Clear
7:52 PM 19.0 °F 11.1 °F 6.1 °F 57% 30.13 in 10.0 mi West 5.8 mph - N/A   Clear
8:52 PM 19.0 °F 11.1 °F 5.0 °F 54% 30.16 in 10.0 mi West 5.8 mph - N/A   Clear
9:52 PM 18.0 °F 8.7 °F 3.0 °F 52% 30.19 in 10.0 mi West 6.9 mph - N/A   Clear
10:52 PM 16.0 °F 10.4 °F 1.9 °F 54% 30.20 in 10.0 mi WSW 3.5 mph - N/A   Clear
11:52 PM 17.1 °F 10.0 °F 1.0 °F 50% 30.23 in 10.0 mi West 4.6 mph - N/A   Clear